Location: ???????
(55.4362°N, 38.1183°E)
Time: 21:07:52
(UTC+00:00)

M-CUBED/EXP-1 PRIME - Pass Details

Date: 15 December 2021
Orbit: 426 x 650 km, 101.7° (Epoch: 26 January)

Event Time Altitude Azimuth Distance (km) Brightness Sun altitude
Rises 16:01:37 0° 186° (S) 2,902 ? -24.4°
Reaches altitude 10° 16:03:59 10° 197° (SSW) 2,023 ? -24.8°
Maximum altitude 16:07:55 31° 259° (W) 1,145 ? -25.3°
Drops below altitude 10° 16:11:56 10° 322° (NW) 2,074 ? -25.9°
Sets 16:14:24 0° 333° (NNW) 2,988 ? -26.2°
